Time,TemperatureF,DewpointF,PressureIn,WindDirection,WindDirectionDegrees,WindSpeedMPH,WindSpeedGustMPH,Humidity,HourlyPrecipIn,Conditions,Clouds,dailyrainin,SoftwareType,DateUTC
2013-05-11 00:01:00,53.0,43.0,-100.00,WNW,303,0.0,9.0,69,0.00,,,0.00,,2013-05-11 07:01:00,
2013-05-11 00:11:00,53.0,43.0,-100.00,WNW,303,0.0,9.0,69,0.00,,,0.00,,2013-05-11 07:11:00,
2013-05-11 00:21:00,53.0,43.0,-100.00,WNW,303,0.0,9.0,69,0.00,,,0.00,,2013-05-11 07:21:00,
2013-05-11 01:21:00,49.0,42.0,-100.00,WNW,297,0.0,2.0,77,0.00,,,0.00,,2013-05-11 08:21:00,
2013-05-11 02:52:00,44.0,41.0,-100.00,SSE,153,0.0,0.0,90,-99.99,,,0.00,,2013-05-11 09:52:00,
2013-05-11 03:03:00,44.0,41.0,-100.00,SSE,153,0.0,0.0,90,-99.99,,,0.00,,2013-05-11 10:03:00,
2013-05-11 07:52:00,57.0,40.0,-100.00,ESE,119,0.0,0.0,53,-99.99,,,0.00,,2013-05-11 14:52:00,
2013-05-11 08:01:00,57.0,40.0,-100.00,ESE,119,0.0,0.0,53,-99.99,,,0.00,,2013-05-11 15:01:00,
2013-05-11 08:53:00,73.0,41.0,-100.00,South,179,0.0,0.0,31,-99.99,,,0.00,,2013-05-11 15:53:00,
2013-05-11 09:02:00,73.0,41.0,-100.00,South,179,0.0,0.0,31,-99.99,,,0.00,,2013-05-11 16:02:00,
2013-05-11 09:12:00,73.0,41.0,-100.00,South,179,0.0,0.0,31,-99.99,,,0.00,,2013-05-11 16:12:00,
2013-05-11 09:22:00,73.0,41.0,-100.00,South,179,0.0,0.0,31,-99.99,,,0.00,,2013-05-11 16:22:00,
2013-05-11 09:53:00,76.0,31.0,-100.00,ESE,115,4.0,11.0,19,0.00,,,0.00,,2013-05-11 16:53:00,
2013-05-11 10:02:00,76.0,31.0,-100.00,ESE,115,4.0,11.0,19,0.00,,,0.00,,2013-05-11 17:02:00,
2013-05-11 10:12:00,76.0,31.0,-100.00,ESE,115,4.0,11.0,19,0.00,,,0.00,,2013-05-11 17:12:00,
2013-05-11 10:22:00,76.0,31.0,-100.00,ESE,115,4.0,11.0,19,0.00,,,0.00,,2013-05-11 17:22:00,
2013-05-11 10:52:00,80.0,30.0,-100.00,West,263,4.0,15.0,16,0.00,,,0.00,,2013-05-11 17:52:00,
2013-05-11 11:01:00,80.0,30.0,-100.00,West,263,4.0,15.0,16,0.00,,,0.00,,2013-05-11 18:01:00,
2013-05-11 11:11:00,80.0,30.0,-100.00,West,263,4.0,15.0,16,0.00,,,0.00,,2013-05-11 18:11:00,
2013-05-11 11:21:00,80.0,30.0,-100.00,West,263,4.0,15.0,16,0.00,,,0.00,,2013-05-11 18:21:00,
2013-05-11 11:52:00,78.0,27.0,-100.00,NE,55,6.0,14.0,15,0.00,,,0.00,,2013-05-11 18:52:00,
2013-05-11 12:02:00,78.0,27.0,-100.00,NE,55,6.0,14.0,15,0.00,,,0.00,,2013-05-11 19:02:00,
2013-05-11 12:11:00,78.0,27.0,-100.00,NE,55,6.0,14.0,15,0.00,,,0.00,,2013-05-11 19:11:00,
2013-05-11 12:21:00,78.0,27.0,-100.00,NE,55,6.0,14.0,15,0.00,,,0.00,,2013-05-11 19:21:00,
2013-05-11 12:52:00,81.0,26.0,-100.00,ESE,114,5.0,17.0,13,0.00,,,0.00,,2013-05-11 19:52:00,
2013-05-11 13:01:00,81.0,26.0,-100.00,ESE,114,5.0,17.0,13,0.00,,,0.00,,2013-05-11 20:01:00,
2013-05-11 13:12:00,81.0,26.0,-100.00,ESE,114,5.0,17.0,13,0.00,,,0.00,,2013-05-11 20:12:00,
2013-05-11 13:22:00,81.0,26.0,-100.00,ESE,114,5.0,17.0,13,0.00,,,0.00,,2013-05-11 20:22:00,
2013-05-11 13:52:00,84.0,28.0,-100.00,NE,55,4.0,16.0,13,0.00,,,0.00,,2013-05-11 20:52:00,
2013-05-11 14:02:00,84.0,28.0,-100.00,NE,55,4.0,16.0,13,0.00,,,0.00,,2013-05-11 21:02:00,
2013-05-11 14:11:00,84.0,28.0,-100.00,NE,55,4.0,16.0,13,0.00,,,0.00,,2013-05-11 21:11:00,
2013-05-11 14:21:00,84.0,28.0,-100.00,NE,55,4.0,16.0,13,0.00,,,0.00,,2013-05-11 21:21:00,
2013-05-11 14:52:00,82.0,26.0,-100.00,SSW,213,4.0,17.0,13,0.00,,,0.00,,2013-05-11 21:52:00,
2013-05-11 15:02:00,82.0,26.0,-100.00,SSW,213,4.0,17.0,13,0.00,,,0.00,,2013-05-11 22:02:00,
2013-05-11 15:12:00,82.0,26.0,-100.00,SSW,213,4.0,17.0,13,0.00,,,0.00,,2013-05-11 22:12:00,
2013-05-11 15:22:00,82.0,26.0,-100.00,SSW,213,4.0,17.0,13,0.00,,,0.00,,2013-05-11 22:22:00,
2013-05-11 15:52:00,82.0,24.0,-100.00,North,10,6.0,18.0,12,0.00,,,0.00,,2013-05-11 22:52:00,
2013-05-11 16:02:00,82.0,24.0,-100.00,North,10,6.0,18.0,12,0.00,,,0.00,,2013-05-11 23:02:00,
2013-05-11 16:11:00,82.0,24.0,-100.00,North,10,6.0,18.0,12,0.00,,,0.00,,2013-05-11 23:11:00,
2013-05-11 16:21:00,82.0,24.0,-100.00,North,10,6.0,18.0,12,0.00,,,0.00,,2013-05-11 23:21:00,
2013-05-11 16:52:00,82.0,22.0,-100.00,North,2,5.0,20.0,11,0.00,,,0.00,,2013-05-11 23:52:00,
2013-05-11 17:01:00,82.0,22.0,-100.00,North,2,5.0,20.0,11,0.00,,,0.00,,2013-05-12 00:01:00,
2013-05-11 17:11:00,82.0,22.0,-100.00,North,2,5.0,20.0,11,0.00,,,0.00,,2013-05-12 00:11:00,
2013-05-11 17:21:00,82.0,22.0,-100.00,North,2,5.0,20.0,11,0.00,,,0.00,,2013-05-12 00:21:00,
2013-05-11 17:52:00,81.0,22.0,-100.00,NNW,343,4.0,14.0,11,0.00,,,0.00,,2013-05-12 00:52:00,
2013-05-11 18:01:00,81.0,22.0,-100.00,NNW,343,4.0,14.0,11,0.00,,,0.00,,2013-05-12 01:01:00,
2013-05-11 18:11:00,81.0,22.0,-100.00,NNW,343,4.0,14.0,11,0.00,,,0.00,,2013-05-12 01:11:00,
2013-05-11 18:21:00,81.0,22.0,-100.00,NNW,343,4.0,14.0,11,0.00,,,0.00,,2013-05-12 01:21:00,
2013-05-11 18:52:00,81.0,22.0,-100.00,North,353,0.0,11.0,11,0.00,,,0.00,,2013-05-12 01:52:00,
2013-05-11 19:01:00,81.0,22.0,-100.00,North,353,0.0,11.0,11,0.00,,,0.00,,2013-05-12 02:01:00,
2013-05-11 19:11:00,81.0,22.0,-100.00,North,353,0.0,11.0,11,0.00,,,0.00,,2013-05-12 02:11:00,
2013-05-11 19:22:00,81.0,22.0,-100.00,North,353,0.0,11.0,11,0.00,,,0.00,,2013-05-12 02:22:00,
2013-05-11 19:52:00,74.0,22.0,-100.00,NNE,27,2.0,10.0,14,0.00,,,0.00,,2013-05-12 02:52:00,
2013-05-11 20:01:00,74.0,22.0,-100.00,NNE,27,2.0,10.0,14,0.00,,,0.00,,2013-05-12 03:01:00,
2013-05-11 20:53:00,65.0,32.0,-100.00,NW,321,0.0,5.0,29,0.00,,,0.00,,2013-05-12 03:53:00,
2013-05-11 21:02:00,-999.0,-99.9,-100.00,NW,321,0.0,5.0,29,0.00,,,0.00,,2013-05-12 04:02:00,
2013-05-11 21:12:00,65.0,32.0,-100.00,NW,321,0.0,5.0,29,0.00,,,0.00,,2013-05-12 04:12:00,
2013-05-11 21:22:00,65.0,32.0,-100.00,NW,321,0.0,5.0,29,0.00,,,0.00,,2013-05-12 04:22:00,
2013-05-11 21:52:00,58.0,31.0,-100.00,SE,133,0.0,2.0,35,0.00,,,0.00,,2013-05-12 04:52:00,
2013-05-11 22:02:00,58.0,31.0,-100.00,SE,133,0.0,2.0,35,0.00,,,0.00,,2013-05-12 05:02:00,
2013-05-11 22:11:00,58.0,31.0,-100.00,SE,133,0.0,2.0,35,0.00,,,0.00,,2013-05-12 05:11:00,
2013-05-11 22:52:00,54.0,33.0,-100.00,SW,228,0.0,2.0,45,-99.99,,,0.00,,2013-05-12 05:52:00,
2013-05-11 23:11:00,54.0,33.0,-100.00,SW,228,0.0,2.0,45,-99.99,,,0.00,,2013-05-12 06:11:00,
2013-05-11 23:21:00,54.0,33.0,-100.00,SW,228,0.0,2.0,45,-99.99,,,0.00,,2013-05-12 06:21:00,
2013-05-11 23:52:00,51.0,34.0,-100.00,ESE,105,0.0,0.0,53,-99.99,,,0.00,,2013-05-12 06:52:00,